SCP
0 0 0 0 0 0 0 0 0 0 0 0 0 0 0 0 0 0 0 0 0 0 0 0 0 0 0 0 0 0 0 0 0 0 0 0 0 0 0 0 1 1 2
0 0 0 0 0 0 0 0 0 0 0 0 0 0 0 0 0 0 0 0 -0 -0 -0 0 0 0 0 0 0 0 0 0 0 0 0 0 0 0 0 0 0 1 2
0 0 0 0 0 0 0 0 0 0 0 0 0 0 0 0 0 0 -0 0 0 -0 0 0 0 0 0 0 0 0 0 0 0 0 0 0 0 0 0 2 1 1 1
0 0 0 0 0 0 0 0 0 0 0 0 0 0 0 0 0 0 0 0 -0 0 0 0 0 0 0 0 0 0 0 0 0 0 0 0 0 0 0 0 2 2 1
0 0 0 0 0 0 0 0 0 0 0 0 0 0 0 0 0 0 0 0 -0 -0 0 0 0 0 0 0 0 0 0 0 0 0 0 0 0 0 0 0 0 0 1
0 0 0 0 0 0 0 0 0 0 0 0 0 0 0 0 0 0 0 0 0 0 0 0 0 0 0 0 0 0 0 0 0 0 0 0 0 0 0 0 0 0 0
0 0 0 0 0 0 0 0 0 0 0 0 0 0 0 0 0 0 0 0 0 0 0 0 0 0 0 0 0 0 0 0 0 0 0 0 0 0 0 0 0 0 0
0 0 0 0 0 0 0 0 0 0 0 0 0 0 0 0 0 0 0 0 0 0 0 0 0 0 0 0 0 0 0 0 0 0 0 0 0 0 0 0 0 0 0
0 0 0 0 0 0 0 0 0 0 0 0 0 0 0 0 0 0 0 0 0 0 0 0 0 0 0 0 0 0 0 0 0 0 0 0 0 0 0 0 0 0 0
0 0 0 0 0 0 0 0 0 0 0 0 0 0 0 0 0 0 0 0 0 0 0 0 0 0 0 0 0 0 0 0 0 0 0 0 0 0 0 0 0 0 0
0 0 0 0 0 0 0 0 0 0 0 0 0 0 0 0 0 0 0 0 0 0 0 0 0 0 0 0 0 0 0 0 0 0 0 0 0 0 0 0 0 0 0
0 0 0 0 0 0 0 0 -0 0 0 0 0 0 0 0 0 0 0 0 0 0 0 0 0 0 0 0 0 0 0 0 0 0 0 0 0 0 0 0 0 0 0
0 0 0 0 -0 0 0 0 0 0 0 0 0 0 0 0 0 0 0 0 0 0 0 0 0 0 0 0 0 0 0 0 0 0 0 0 0 0 0 0 0 0 0
0 0 0 0 0 0 0 0 0 0 0 0 0 0 0 0 0 0 0 0 0 0 0 0 0 0 0 0 0 0 0 0 0 0 0 0 0 0 0 0 0 0 0
0 0 0 0 0 0 0 0 0 0 0 0 0 0 0 0 0 0 0 0 0 0 0 0 0 0 0 0 0 0 0 0 0 0 0 0 0 0 0 0 0 0 0
0 0 0 0 0 0 0 0 0 0 0 0 0 0 0 0 0 0 0 0 0 0 0 0 0 0 0 0 0 0 0 0 0 0 0 0 0 0 0 0 0 0 0
0 0 0 0 0 0 0 0 0 0 0 0 0 0 0 0 0 0 0 0 0 0 0 0 0 0 0 0 0 0 0 0 0 0 0 0 0 0 0 0 0 0 0
0 0 0 0 0 0 0 0 0 0 0 0 0 0 0 0 0 0 0 0 0 0 0 0 0 0 0 0 0 0 0 0 0 0 0 0 0 0 0 0 0 0 0
0 0 0 0 0 0 0 0 0 0 0 0 0 0 0 0 0 0 0 0 0 0 0 0 0 0 0 0 0 0 0 0 0 0 0 0 0 0 0 0 0 0 0
0 0 0 0 0 1 1 0 0 0 0 0 0 0 0 0 0 0 0 0 0 0 0 0 0 0 0 0 0 0 0 0 0 0 0 0 0 0 0 0 0 0 0
0 0 0 0 0 0 0 0 0 0 0 0 0 0 0 0 0 0 0 0 0 0 0 0 0 0 0 0 0 0 0 0 0 0 0 0 0 0 0 0 0 0 0
0 0 0 0 1 0 0 0 0 0 0 0 0 0 0 0 0 0 0 0 0 0 0 0 0 0 0 0 0 0 0 0 0 0 0 0 0 0 0 0 0 0 0
0 0 0 0 0 0 0 0 0 0 0 0 0 0 0 0 0 0 0 0 0 0 0 0 0 0 0 0 0 0 0 0 0 0 0 0 0 0 0 0 0 0 0
0 0 0 0 0 0 0 0 0 0 0 0 0 0 0 0 0 0 0 0 0 0 0 0 0 0 0 0 0 0 0 0 0 0 0 0 0 0 0 0 0 0 0
0 0 0 0 0 0 0 0 0 0 0 0 0 0 0 0 0 0 0 0 0 0 0 0 0 0 0 0 0 0 0 0 0 0 0 0 0 0 0 0 0 0 0
0 0 0 0 0 0 0 0 0 0 0 0 0 0 0 0 0 -0 0 0 0 0 0 0 0 0 0 0 0 -0 -0 -0 -0 0 0 0 0 0 0 0 0 0 0
Wind_Speed_500mb
47 48 48 46 45 45 44 43 42 45 39 25 13 12 7 10 6 7 19 21 20 23 27 24 24 25 24 27 34 32 31 31 29 34 38 42 48 50 49 47 51 54 52
51 55 55 54 54 52 49 48 47 47 44 26 22 20 19 10 12 13 23 26 24 30 27 30 29 28 28 31 32 32 32 31 28 32 35 42 40 44 48 49 52 58 55
58 58 61 61 58 56 56 54 55 52 49 30 30 25 21 13 9 10 14 20 36 32 33 33 33 33 31 26 29 30 31 33 31 31 29 26 27 36 27 48 41 44 52
58 60 62 63 63 62 56 53 54 55 53 45 27 27 19 17 17 20 16 34 29 34 33 36 35 35 31 29 30 29 31 32 35 30 32 41 45 46 42 42 42 40 39
59 62 62 65 64 60 59 54 54 51 47 49 37 32 25 18 13 16 26 32 28 28 28 32 38 40 37 30 35 38 36 34 38 36 36 37 39 43 49 48 56 46 39
59 62 62 63 68 62 60 54 55 54 51 52 47 41 36 34 26 25 35 24 23 27 25 27 41 45 44 38 35 34 35 38 40 39 40 39 40 40 43 50 52 55 55
33 38 47 53 63 62 64 62 57 53 50 53 48 46 43 40 37 37 24 30 31 30 30 44 47 44 44 45 43 39 40 41 41 42 42 40 44 44 47 51 56 56 52
31 35 39 47 59 61 62 62 57 51 48 47 48 46 42 33 26 28 31 39 40 41 44 51 50 49 47 46 43 39 41 41 42 43 45 45 46 45 48 51 51 54 53
10 21 29 39 47 57 59 60 56 48 48 45 42 40 38 39 36 42 48 42 43 43 43 47 51 50 49 46 45 44 46 47 49 47 48 49 48 49 51 52 53 54 54
7 8 15 24 36 44 51 54 54 48 49 42 38 35 37 38 42 46 47 49 54 56 54 50 48 47 46 45 46 48 44 47 51 47 50 54 49 52 54 57 58 58 60
7 9 14 21 31 39 47 50 49 48 44 43 39 37 36 36 40 43 47 50 53 56 52 46 44 46 46 46 50 54 58 57 56 57 60 56 56 56 55 57 59 62 62
8 13 18 25 31 37 42 44 47 45 44 40 39 37 35 35 37 42 45 50 56 54 53 47 47 48 49 50 53 55 57 57 56 59 63 59 53 62 64 63 69 60 58
11 15 21 24 29 34 37 41 43 43 40 39 38 37 36 34 37 41 49 52 54 53 49 48 49 53 58 61 57 60 59 58 61 60 60 65 61 61 59 66 64 61 71
19 19 20 23 25 29 35 39 40 39 36 36 37 38 38 38 39 43 47 51 51 50 50 51 53 61 64 62 62 65 67 70 69 65 61 59 63 66 59 62 72 70 69
26 29 30 28 27 34 38 40 41 42 41 40 39 38 37 38 40 43 45 47 48 50 51 55 64 69 71 65 66 69 70 71 72 76 74 71 69 71 72 61 64 72 62
31 36 40 43 41 40 42 45 45 43 40 41 41 37 37 39 41 43 45 47 49 51 54 63 71 71 68 66 75 74 79 79 83 86 85 88 80 78 81 78 72 87 88
37 45 41 36 39 44 49 47 44 42 41 41 39 37 38 40 42 44 46 48 50 59 70 73 72 75 73 74 73 77 83 87 92 98 98 97 96 90 83 81 80 77 97
50 48 52 49 51 47 50 41 42 42 39 38 36 36 38 40 41 44 47 50 53 61 66 65 66 70 73 79 80 83 82 82 94 89 91 97 100 99 95 89 83 83 76
54 56 56 52 42 48 34 36 39 37 35 32 32 33 35 39 42 44 47 51 57 58 64 65 72 74 80 81 79 77 84 92 89 99 94 93 99 100 95 89 92 89 83
33 35 40 57 58 39 32 37 36 32 30 26 28 30 32 36 42 49 50 55 62 65 62 68 69 74 80 76 80 78 78 84 83 88 99 104 105 101 96 97 93 94 89
48 49 48 49 44 37 33 30 30 28 23 22 23 26 30 38 46 47 51 55 54 58 62 70 67 68 71 74 70 69 75 88 98 107 110 99 98 97 97 97 97 96 82
52 52 55 47 30 30 26 27 26 20 16 16 19 24 33 37 37 41 45 47 50 55 58 61 64 60 62 61 66 77 84 89 90 96 96 98 87 93 87 87 93 91 86
47 59 30 24 26 21 24 25 20 13 12 15 24 30 30 29 32 39 42 45 44 50 56 58 66 71 66 71 78 86 92 95 99 103 104 102 93 79 83 76 83 85 94
51 30 28 33 25 26 22 18 12 10 11 19 20 21 25 28 32 36 36 41 44 51 60 69 81 88 86 84 86 90 94 97 99 100 95 94 91 71 86 84 87 92 97
31 30 37 33 30 24 18 10 6 7 9 14 17 19 21 28 33 34 39 41 43 53 71 69 68 75 85 84 82 81 91 94 92 79 87 90 84 70 87 87 90 96 97
34 39 35 33 26 21 14 6 4 7 8 11 14 18 24 27 31 38 41 39 52 60 54 41 51 61 64 70 73 78 81 77 64 62 60 56 51 63 87 98 93 97 100
Wind_Direction_500mb
210 204 200 196 193 191 190 188 186 201 192 188 181 203 211 232 255 290 293 318 312 317 320 322 313 310 301 285 275 286 289 286 284 287 285 282 276 267 261 259 259 251 246
214 206 201 201 200 197 196 195 197 205 196 191 186 193 202 230 241 267 313 325 329 324 324 318 316 308 298 290 285 283 281 281 279 278 286 288 288 271 256 258 250 254 251
213 210 203 206 204 203 202 200 201 207 200 189 207 220 244 270 321 289 320 282 313 319 320 320 320 317 311 296 286 280 276 280 276 267 268 289 278 312 281 256 252 248 253
213 213 212 209 209 209 207 203 201 207 204 207 207 209 214 228 243 273 280 297 320 312 320 319 319 318 311 292 282 285 277 273 277 275 266 265 272 283 292 280 259 255 253
216 219 220 218 215 213 210 206 204 202 201 213 204 230 232 238 259 269 286 308 329 316 308 309 311 315 314 295 282 279 272 266 268 270 273 271 270 271 269 278 280 279 254
226 226 226 224 210 214 214 211 206 204 201 214 219 229 226 242 258 274 290 309 298 304 301 296 302 306 304 301 293 284 278 274 266 265 263 267 269 271 271 269 269 269 270
237 239 235 228 210 210 214 212 208 208 205 213 225 235 244 254 271 288 289 290 301 301 294 290 298 298 294 293 290 284 277 274 269 264 267 268 267 266 267 270 273 278 273
240 234 229 226 222 212 213 211 207 210 211 213 225 235 246 255 264 277 280 285 294 302 300 299 300 299 296 294 291 284 280 276 276 273 269 266 265 263 263 264 270 273 270
241 236 237 231 221 210 204 207 208 212 213 216 222 231 243 254 252 263 278 291 298 301 296 287 288 290 290 289 285 279 277 276 273 270 269 267 265 263 260 258 259 264 269
196 213 215 208 207 198 196 203 205 213 212 214 219 228 241 254 265 275 283 291 299 302 299 293 290 288 287 286 280 278 274 271 271 268 264 262 264 263 262 261 257 258 264
156 157 174 182 185 188 190 196 204 208 212 215 219 231 237 249 263 273 283 290 296 298 293 287 283 283 282 280 278 278 278 273 264 260 262 263 258 258 260 259 260 256 258
174 157 156 166 176 182 189 197 203 209 215 219 225 235 244 251 260 273 282 288 293 292 290 283 280 279 278 275 273 274 275 270 269 269 270 264 260 257 260 258 255 255 256
213 179 169 170 179 186 193 200 207 214 221 227 232 239 247 254 264 273 283 288 290 288 284 280 278 277 273 276 275 275 275 275 269 267 268 265 265 260 257 251 255 259 252
222 230 203 202 204 211 213 218 223 229 231 232 237 242 250 259 267 276 283 288 289 285 282 280 277 275 274 274 272 272 272 273 270 269 271 266 266 268 263 257 250 253 253
220 228 238 243 237 229 232 238 239 240 239 240 243 249 256 265 274 280 284 284 282 282 281 279 276 275 277 274 271 275 276 274 269 268 272 274 263 259 260 259 258 251 252
279 265 237 233 240 251 254 240 240 243 242 241 246 253 260 267 274 279 282 283 283 281 278 275 280 282 277 273 278 275 274 269 266 265 269 272 270 267 266 263 264 243 238
256 269 263 247 250 255 259 249 239 238 235 239 247 255 264 272 278 282 281 283 284 282 287 291 289 285 280 281 281 276 273 270 270 270 272 271 270 270 263 265 269 261 238
276 274 266 268 263 264 265 239 233 230 232 237 248 258 268 274 278 282 282 284 286 287 291 289 285 282 282 285 284 283 281 274 271 270 268 268 266 266 265 263 261 255 254
274 271 267 270 269 270 248 229 221 222 228 240 253 266 273 279 284 284 284 284 288 290 289 286 285 287 288 289 286 283 279 277 273 274 274 269 268 266 263 255 256 252 244
277 289 283 267 268 263 238 213 219 221 230 246 259 267 281 284 285 285 293 290 293 294 290 287 288 289 290 292 287 286 281 279 278 278 280 276 271 267 257 254 251 243 237
277 280 282 272 258 247 215 213 222 226 236 246 268 280 285 282 291 296 295 297 296 292 291 292 296 295 296 297 297 294 285 281 279 278 280 274 274 265 258 253 247 242 233
268 272 270 255 243 213 201 211 218 229 248 269 282 280 283 294 297 297 299 297 296 297 299 300 299 295 294 292 288 290 297 294 284 278 282 287 279 269 262 251 241 234 229
275 285 240 228 181 189 203 209 216 236 265 278 279 294 302 303 300 299 300 303 304 301 302 300 299 300 300 299 307 312 311 310 303 298 292 288 284 267 258 245 231 225 222
281 234 210 185 178 195 200 200 215 253 279 291 302 306 306 302 307 301 304 303 306 305 306 304 301 307 309 312 316 313 311 307 304 303 301 293 284 267 246 236 224 219 215
272 213 189 181 188 194 192 189 222 283 291 307 310 313 311 309 311 309 303 308 311 306 306 307 307 308 308 312 312 315 312 310 310 306 294 292 271 243 228 220 215 210 210
261 210 183 167 183 190 184 175 257 296 317 319 317 317 317 316 312 310 316 315 308 319 323 312 310 309 310 316 321 314 312 318 318 322 311 296 277 237 212 201 204 200 203
Wind_Speed_850mb
47 48 48 46 45 45 44 43 42 45 39 25 13 12 7 10 6 7 19 21 20 23 27 24 24 25 24 27 34 32 31 31 29 34 38 42 48 50 49 47 51 54 52
51 55 55 54 54 52 49 48 47 47 44 26 22 20 19 10 12 13 23 26 24 30 27 30 29 28 28 31 32 32 32 31 28 32 35 42 40 44 48 49 52 58 55
58 58 61 61 58 56 56 54 55 52 49 30 30 25 21 13 9 10 14 20 36 32 33 33 33 33 31 26 29 30 31 33 31 31 29 26 27 36 27 48 41 44 52
58 60 62 63 63 62 56 53 54 55 53 45 27 27 19 17 17 20 16 34 29 34 33 36 35 35 31 29 30 29 31 32 35 30 32 41 45 46 42 42 42 40 39
59 62 62 65 64 60 59 54 54 51 47 49 37 32 25 18 13 16 26 32 28 28 28 32 38 40 37 30 35 38 36 34 38 36 36 37 39 43 49 48 56 46 39
59 62 62 63 68 62 60 54 55 54 51 52 47 41 36 34 26 25 35 24 23 27 25 27 41 45 44 38 35 34 35 38 40 39 40 39 40 40 43 50 52 55 55
33 38 47 53 63 62 64 62 57 53 50 53 48 46 43 40 37 37 24 30 31 30 30 44 47 44 44 45 43 39 40 41 41 42 42 40 44 44 47 51 56 56 52
31 35 39 47 59 61 62 62 57 51 48 47 48 46 42 33 26 28 31 39 40 41 44 51 50 49 47 46 43 39 41 41 42 43 45 45 46 45 48 51 51 54 53
10 21 29 39 47 57 59 60 56 48 48 45 42 40 38 39 36 42 48 42 43 43 43 47 51 50 49 46 45 44 46 47 49 47 48 49 48 49 51 52 53 54 54
7 8 15 24 36 44 51 54 54 48 49 42 38 35 37 38 42 46 47 49 54 56 54 50 48 47 46 45 46 48 44 47 51 47 50 54 49 52 54 57 58 58 60
7 9 14 21 31 39 47 50 49 48 44 43 39 37 36 36 40 43 47 50 53 56 52 46 44 46 46 46 50 54 58 57 56 57 60 56 56 56 55 57 59 62 62
8 13 18 25 31 37 42 44 47 45 44 40 39 37 35 35 37 42 45 50 56 54 53 47 47 48 49 50 53 55 57 57 56 59 63 59 53 62 64 63 69 60 58
11 15 21 24 29 34 37 41 43 43 40 39 38 37 36 34 37 41 49 52 54 53 49 48 49 53 58 61 57 60 59 58 61 60 60 65 61 61 59 66 64 61 71
19 19 20 23 25 29 35 39 40 39 36 36 37 38 38 38 39 43 47 51 51 50 50 51 53 61 64 62 62 65 67 70 69 65 61 59 63 66 59 62 72 70 69
26 29 30 28 27 34 38 40 41 42 41 40 39 38 37 38 40 43 45 47 48 50 51 55 64 69 71 65 66 69 70 71 72 76 74 71 69 71 72 61 64 72 62
31 36 40 43 41 40 42 45 45 43 40 41 41 37 37 39 41 43 45 47 49 51 54 63 71 71 68 66 75 74 79 79 83 86 85 88 80 78 81 78 72 87 88
37 45 41 36 39 44 49 47 44 42 41 41 39 37 38 40 42 44 46 48 50 59 70 73 72 75 73 74 73 77 83 87 92 98 98 97 96 90 83 81 80 77 97
50 48 52 49 51 47 50 41 42 42 39 38 36 36 38 40 41 44 47 50 53 61 66 65 66 70 73 79 80 83 82 82 94 89 91 97 100 99 95 89 83 83 76
54 56 56 52 42 48 34 36 39 37 35 32 32 33 35 39 42 44 47 51 57 58 64 65 72 74 80 81 79 77 84 92 89 99 94 93 99 100 95 89 92 89 83
33 35 40 57 58 39 32 37 36 32 30 26 28 30 32 36 42 49 50 55 62 65 62 68 69 74 80 76 80 78 78 84 83 88 99 104 105 101 96 97 93 94 89
48 49 48 49 44 37 33 30 30 28 23 22 23 26 30 38 46 47 51 55 54 58 62 70 67 68 71 74 70 69 75 88 98 107 110 99 98 97 97 97 97 96 82
52 52 55 47 30 30 26 27 26 20 16 16 19 24 33 37 37 41 45 47 50 55 58 61 64 60 62 61 66 77 84 89 90 96 96 98 87 93 87 87 93 91 86
47 59 30 24 26 21 24 25 20 13 12 15 24 30 30 29 32 39 42 45 44 50 56 58 66 71 66 71 78 86 92 95 99 103 104 102 93 79 83 76 83 85 94
51 30 28 33 25 26 22 18 12 10 11 19 20 21 25 28 32 36 36 41 44 51 60 69 81 88 86 84 86 90 94 97 99 100 95 94 91 71 86 84 87 92 97
31 30 37 33 30 24 18 10 6 7 9 14 17 19 21 28 33 34 39 41 43 53 71 69 68 75 85 84 82 81 91 94 92 79 87 90 84 70 87 87 90 96 97
34 39 35 33 26 21 14 6 4 7 8 11 14 18 24 27 31 38 41 39 52 60 54 41 51 61 64 70 73 78 81 77 64 62 60 56 51 63 87 98 93 97 100
Wind_Direction_850mb
210 204 200 196 193 191 190 188 186 201 192 188 181 203 211 232 255 290 293 318 312 317 320 322 313 310 301 285 275 286 289 286 284 287 285 282 276 267 261 259 259 251 246
214 206 201 201 200 197 196 195 197 205 196 191 186 193 202 230 241 267 313 325 329 324 324 318 316 308 298 290 285 283 281 281 279 278 286 288 288 271 256 258 250 254 251
213 210 203 206 204 203 202 200 201 207 200 189 207 220 244 270 321 289 320 282 313 319 320 320 320 317 311 296 286 280 276 280 276 267 268 289 278 312 281 256 252 248 253
213 213 212 209 209 209 207 203 201 207 204 207 207 209 214 228 243 273 280 297 320 312 320 319 319 318 311 292 282 285 277 273 277 275 266 265 272 283 292 280 259 255 253
216 219 220 218 215 213 210 206 204 202 201 213 204 230 232 238 259 269 286 308 329 316 308 309 311 315 314 295 282 279 272 266 268 270 273 271 270 271 269 278 280 279 254
226 226 226 224 210 214 214 211 206 204 201 214 219 229 226 242 258 274 290 309 298 304 301 296 302 306 304 301 293 284 278 274 266 265 263 267 269 271 271 269 269 269 270
237 239 235 228 210 210 214 212 208 208 205 213 225 235 244 254 271 288 289 290 301 301 294 290 298 298 294 293 290 284 277 274 269 264 267 268 267 266 267 270 273 278 273
240 234 229 226 222 212 213 211 207 210 211 213 225 235 246 255 264 277 280 285 294 302 300 299 300 299 296 294 291 284 280 276 276 273 269 266 265 263 263 264 270 273 270
241 236 237 231 221 210 204 207 208 212 213 216 222 231 243 254 252 263 278 291 298 301 296 287 288 290 290 289 285 279 277 276 273 270 269 267 265 263 260 258 259 264 269
196 213 215 208 207 198 196 203 205 213 212 214 219 228 241 254 265 275 283 291 299 302 299 293 290 288 287 286 280 278 274 271 271 268 264 262 264 263 262 261 257 258 264
156 157 174 182 185 188 190 196 204 208 212 215 219 231 237 249 263 273 283 290 296 298 293 287 283 283 282 280 278 278 278 273 264 260 262 263 258 258 260 259 260 256 258
174 157 156 166 176 182 189 197 203 209 215 219 225 235 244 251 260 273 282 288 293 292 290 283 280 279 278 275 273 274 275 270 269 269 270 264 260 257 260 258 255 255 256
213 179 169 170 179 186 193 200 207 214 221 227 232 239 247 254 264 273 283 288 290 288 284 280 278 277 273 276 275 275 275 275 269 267 268 265 265 260 257 251 255 259 252
222 230 203 202 204 211 213 218 223 229 231 232 237 242 250 259 267 276 283 288 289 285 282 280 277 275 274 274 272 272 272 273 270 269 271 266 266 268 263 257 250 253 253
220 228 238 243 237 229 232 238 239 240 239 240 243 249 256 265 274 280 284 284 282 282 281 279 276 275 277 274 271 275 276 274 269 268 272 274 263 259 260 259 258 251 252
279 265 237 233 240 251 254 240 240 243 242 241 246 253 260 267 274 279 282 283 283 281 278 275 280 282 277 273 278 275 274 269 266 265 269 272 270 267 266 263 264 243 238
256 269 263 247 250 255 259 249 239 238 235 239 247 255 264 272 278 282 281 283 284 282 287 291 289 285 280 281 281 276 273 270 270 270 272 271 270 270 263 265 269 261 238
276 274 266 268 263 264 265 239 233 230 232 237 248 258 268 274 278 282 282 284 286 287 291 289 285 282 282 285 284 283 281 274 271 270 268 268 266 266 265 263 261 255 254
274 271 267 270 269 270 248 229 221 222 228 240 253 266 273 279 284 284 284 284 288 290 289 286 285 287 288 289 286 283 279 277 273 274 274 269 268 266 263 255 256 252 244
277 289 283 267 268 263 238 213 219 221 230 246 259 267 281 284 285 285 293 290 293 294 290 287 288 289 290 292 287 286 281 279 278 278 280 276 271 267 257 254 251 243 237
277 280 282 272 258 247 215 213 222 226 236 246 268 280 285 282 291 296 295 297 296 292 291 292 296 295 296 297 297 294 285 281 279 278 280 274 274 265 258 253 247 242 233
268 272 270 255 243 213 201 211 218 229 248 269 282 280 283 294 297 297 299 297 296 297 299 300 299 295 294 292 288 290 297 294 284 278 282 287 279 269 262 251 241 234 229
275 285 240 228 181 189 203 209 216 236 265 278 279 294 302 303 300 299 300 303 304 301 302 300 299 300 300 299 307 312 311 310 303 298 292 288 284 267 258 245 231 225 222
281 234 210 185 178 195 200 200 215 253 279 291 302 306 306 302 307 301 304 303 306 305 306 304 301 307 309 312 316 313 311 307 304 303 301 293 284 267 246 236 224 219 215
272 213 189 181 188 194 192 189 222 283 291 307 310 313 311 309 311 309 303 308 311 306 306 307 307 308 308 312 312 315 312 310 310 306 294 292 271 243 228 220 215 210 210
261 210 183 167 183 190 184 175 257 296 317 319 317 317 317 316 312 310 316 315 308 319 323 312 310 309 310 316 321 314 312 318 318 322 311 296 277 237 212 201 204 200 203